Regional Weather Roundup
Issued by NWS State College, PA

Home | Current Version | Previous Version | Text Only | Print | Product List | Glossary Off
Versions: 1 2 3 4 5 6 7 8 9 10 11 12 13 14 15 16 17 18 19 20 21 22 23 24 25 26 27 28 29 30 31 32 33 34 35 36 37 38 39 40 41 42 43 44 45 46 47 48 49 50

000
ASUS41 KCTP 211703
RWRCTP

REGIONAL WEATHER ROUNDUP
NATIONAL WEATHER SERVICE STATE COLLEGE PA
100 PM EDT SAT APR 21 2018

Note: "fair" indicates few or no clouds below 12,000 feet with no
significant weather and/or obstructions to visibility.

* = STATION THAT DOES NOT REPORT PRECIPITATION /E.G. RAIN...SNOW...ETC/
    THUNDER OR FOG.

PAZ002>004-007>009-013>016-020>023-029>032-211800-
WESTERN PENNSYLVANIA

CITY           SKY/WX    TMP DP  RH WIND       PRES   REMARKS
ERIE           FAIR      42  30  62 N7        30.47S
MEADVILLE      FAIR      50  23  34 VRB3      30.42F
FRANKLIN*      FAIR      49  18  29 CALM      30.42F
NEW CASTLE     FAIR      50  25  37 CALM      30.44F
BEAVER COUNTY  SUNNY     50  23  34 CALM      30.42F
BUTLER*        FAIR      51  26  37 MISG      30.42F
PITTSBURGH INT CLOUDY    50  26  39 NW5       30.42F
PITTSBURGH     FAIR      52  28  39 CALM      30.41F
INDIANA*       SUNNY     50  27  40 VRB3      30.44F
LATROBE        MOSUNNY   50  21  32 N9        30.42F
WASHINGTON CO* FAIR      52  27  38 W6        30.44F
$$

PAZ004>006-010>012-017>019-024>028-033>037-041-042-045-046-049>053-211800-
CENTRAL PENNSYLVANIA

CITY           SKY/WX    TMP DP  RH WIND       PRES   REMARKS
BRADFORD       FAIR      51  20  29 N8        30.40F
DUBOIS         FAIR      48  22  35 VRB6      30.39F
CLEARFIELD     FAIR      51  25  36 SE7       30.39F
JOHNSTOWN      FAIR      48  21  34 S5        30.37F
ALTOONA        FAIR      51  27  39 VRB6      30.40F
STATE COLLEGE  SUNNY     48  27  43 S3        30.41F
WILLIAMSPORT   FAIR      55  26  32 VRB3      30.39F
SELINSGROVE    FAIR      52  27  38 S3        30.41F
FT INDIANTOWN  FAIR      55  23  29 S6        30.40F
CAPITAL CITY   FAIR      55  27  34 MISG      30.42F
HARRISBURG     PTSUNNY   53  27  36 W3        30.41F
YORK           FAIR      51  29  42 SW7       30.42F
$$

PAZ038>040-043-044-047-048-054-055-060>062-067>071-211800-
EASTERN PENNSYLVANIA

CITY           SKY/WX    TMP DP  RH WIND       PRES   REMARKS
SCRANTON       FAIR      52  21  29 NW16G22   30.38F
MOUNT POCONO   FAIR      48  22  35 W16G22    30.34F
ALLENTOWN      FAIR      56  26  31 N8        30.38F
QUAKERTOWN*    SUNNY     54  27  35 CALM      30.39F
READING        FAIR      56  29  35 NW9       30.39F
LANCASTER      FAIR      52  31  44 W8G17     30.41F
COATESVILLE    FAIR      52  27  37 W9G16     30.41F
POTTSTOWN      FAIR      54  26  34 NW9       30.41F
BLUE BELL      FAIR      52  30  43 N6        30.41F
DOYLESTOWN     FAIR      54  26  34 VRB5      30.38F
WILLOW GROVE   NOT AVBL
NORTH PHILA    FAIR      57  27  31 NW13G22   30.41F
PHILADELPHIA   PTSUNNY   54  23  30 W5        30.41F
$$




USA.gov is the U.S. government's official web portal to all federal, state and local government web resources and services.